Weather History for K1A6 - October, 2011

Change the Weather History Date:

Wednesday, October 5, 2011

  Actual Average (KLOZ) Record (KLOZ)
Temperature  
Mean Temperature 65 °F 61 °F  
Max Temperature 82 °F 73 °F 88 °F (2007)
Min Temperature 48 °F 49 °F 28 °F (1968)
Degree Days  
Heating Degree Days 0 5  
Month to date heating degree days 24  
Since 1 July heating degree days 71  
Cooling Degree Days 0 1  
Month to date cooling degree days 7  
Growing Degree Days 15 (Base 50)    
Moisture  
Dew Point 52 °F    
Average Humidity 79    
Maximum Humidity 100    
Minimum Humidity 32    
Precipitation  
Precipitation 0.00 in 0.10 in 2.14 in (1995)
Month to date precipitation 0.48  
Sea Level Pressure  
Sea Level Pressure 30.28 in    
Wind  
Wind Speed 0 mph (NW)    
Max Wind Speed 4 mph    
Max Gust Speed -    
Visibility 6 miles    
Events Fog    
T = Trace of Precipitation, MM = Missing Value Source: NWS Daily Summary

Daily Weather History Graph

Daily Weather History Graph

Search for Another Location

Airport or City:

Trip Planner

Search our weather history database for the weather conditions in past years. The results will help you decide how hot, cold, wet, or windy it might be!

Date:

Astronomy

Oct. 05, 2011 Rise Set
Actual Time 6:33 AM CDT 6:12 PM CDT
Civil Twilight 6:07 AM CDT 6:38 PM CDT
Nautical Twilight 5:37 AM CDT 7:08 PM CDT
Astronomical Twilight 5:07 AM CDT 7:38 PM CDT
Moon 2:44 PM CDT (10/5) 12:28 AM CDT (10/5)
Length of Visible Light 12h 31m
Length of Day
11h 39m
Waxing Gibbous, 66% of the Moon is Illuminated
Oct 5
Waxing Gibbous
Oct 11
Full
Oct 19
Last Quarter
Oct 26
New
Nov 2
First Quarter

Hourly Weather History & Observations

Time (CDT) Temp. Heat Index Dew Point Humidity Pressure Visibility Wind Dir Wind Speed Gust Speed Precip Events Conditions
12:15 AM 50.0 °F - 48.2 °F 94% 30.29 in 10.0 mi Calm Calm - N/A   Clear
12:35 AM 50.0 °F - 48.2 °F 94% 30.29 in 10.0 mi Calm Calm - N/A   Clear
1:15 AM 48.2 °F - 48.2 °F 100% 30.30 in 10.0 mi Calm Calm - N/A   Scattered Clouds
1:35 AM 48.2 °F - 48.2 °F 100% 30.30 in 10.0 mi Calm Calm - N/A   Overcast
2:15 AM 48.2 °F - 48.2 °F 100% 30.29 in 2.0 mi Calm Calm - N/A   Overcast
2:35 AM 48.2 °F - 48.2 °F 100% 30.29 in 0.5 mi Calm Calm - N/A Fog Fog
2:55 AM 48.2 °F - 48.2 °F 100% 30.29 in 0.2 mi Calm Calm - N/A Fog Fog
3:15 AM 48.2 °F - 48.2 °F 100% 30.29 in 0.2 mi Calm Calm - N/A Fog Fog
3:35 AM 48.2 °F - 48.2 °F 100% 30.30 in 0.2 mi Calm Calm - N/A Fog Fog
3:55 AM 48.2 °F - 48.2 °F 100% 30.30 in 0.2 mi Calm Calm - N/A Fog Fog
4:15 AM 48.2 °F - 48.2 °F 100% 30.30 in 0.2 mi Calm Calm - N/A Fog Fog
4:55 AM 48.2 °F - 48.2 °F 100% 30.31 in 0.2 mi Calm Calm - N/A Fog Fog
5:15 AM 48.2 °F - 46.4 °F 93% 30.31 in 0.5 mi Calm Calm - N/A Fog Fog
5:35 AM 48.2 °F - 46.4 °F 93% 30.31 in 0.5 mi Calm Calm - N/A Fog Fog
5:55 AM 48.2 °F - 46.4 °F 93% 30.32 in 0.5 mi Calm Calm - N/A Fog Fog
6:35 AM 48.2 °F - 48.2 °F 100% 30.33 in 0.2 mi Calm Calm - N/A Fog Fog
6:55 AM 48.2 °F - 46.4 °F 93% 30.33 in 0.2 mi Calm Calm - N/A Fog Fog
7:15 AM 48.2 °F - 48.2 °F 100% 30.33 in 0.2 mi Calm Calm - N/A Fog Fog
7:35 AM 48.2 °F - 48.2 °F 100% 30.34 in 0.2 mi Calm Calm - N/A Fog Fog
7:55 AM 48.2 °F - 48.2 °F 100% 30.35 in 0.2 mi Calm Calm - N/A Fog Fog
8:15 AM 48.2 °F - 48.2 °F 100% 30.35 in 0.2 mi Calm Calm - N/A Fog Fog
8:35 AM 48.2 °F - 48.2 °F 100% 30.35 in 0.5 mi Calm Calm - N/A Fog Fog
8:55 AM 50.0 °F - 48.2 °F 94% 30.35 in 0.5 mi Calm Calm - N/A Fog Fog
9:15 AM 51.8 °F - 50.0 °F 94% 30.35 in 0.8 mi Calm Calm - N/A   Overcast
9:35 AM 51.8 °F - 50.0 °F 94% 30.35 in 2.5 mi Calm Calm - N/A   Overcast
9:55 AM 51.8 °F - 51.8 °F 100% 30.35 in 4.0 mi Calm Calm - N/A   Overcast
10:35 AM 59.0 °F - 55.4 °F 88% 30.33 in 10.0 mi Calm Calm - N/A   Clear
10:55 AM 62.6 °F - 55.4 °F 77% 30.32 in 10.0 mi Calm Calm - N/A   Clear
11:15 AM 64.4 °F - 55.4 °F 73% 30.31 in 10.0 mi Calm Calm - N/A   Clear
11:35 AM 66.2 °F - 55.4 °F 68% 30.31 in 10.0 mi Calm Calm - N/A   Clear
11:55 AM 69.8 °F - 57.2 °F 64% 30.30 in 10.0 mi Calm Calm - N/A   Clear
12:15 PM 71.6 °F - 57.2 °F 60% 30.29 in 7.0 mi Calm Calm - N/A   Clear
12:35 PM 75.2 °F - 57.2 °F 53% 30.28 in 7.0 mi Calm Calm - N/A   Clear
12:55 PM 77.0 °F - 55.4 °F 47% 30.28 in 7.0 mi Calm Calm - N/A   Clear
1:15 PM 78.8 °F - 55.4 °F 44% 30.26 in 10.0 mi Calm Calm - N/A   Clear
1:35 PM 78.8 °F - 53.6 °F 42% 30.26 in 7.0 mi Calm Calm - N/A   Clear
1:55 PM 80.6 °F - 51.8 °F 37% 30.25 in 10.0 mi Calm Calm - N/A   Clear
2:35 PM 80.6 °F - 48.2 °F 32% 30.23 in 10.0 mi Calm Calm - N/A   Clear
2:55 PM 80.6 °F - 50.0 °F 34% 30.23 in 10.0 mi Calm Calm - N/A   Clear
3:15 PM 80.6 °F - 50.0 °F 34% 30.22 in 10.0 mi Calm Calm - N/A   Clear
3:35 PM 80.6 °F - 51.8 °F 37% 30.22 in 10.0 mi Calm Calm - N/A   Clear
3:55 PM 82.4 °F 81.4 °F 53.6 °F 37% 30.22 in 10.0 mi North 3.5 mph - N/A   Clear
4:15 PM 80.6 °F 80.3 °F 53.6 °F 39% 30.22 in 10.0 mi North 3.5 mph - N/A   Clear
4:55 PM 78.8 °F - 57.2 °F 47% 30.21 in 10.0 mi Calm Calm - N/A   Clear
5:15 PM 75.2 °F - 57.2 °F 53% 30.22 in 10.0 mi Calm Calm - N/A   Clear
5:35 PM 73.4 °F - 57.2 °F 57% 30.22 in 7.0 mi WNW 3.5 mph - N/A   Clear
5:55 PM 69.8 °F - 57.2 °F 64% 30.23 in 10.0 mi Calm Calm - N/A   Clear
6:15 PM 68.0 °F - 57.2 °F 68% 30.23 in 7.0 mi West 3.5 mph - N/A   Clear
6:35 PM 66.2 °F - 57.2 °F 73% 30.23 in 10.0 mi Calm Calm - N/A   Clear
6:55 PM 64.4 °F - 57.2 °F 77% 30.24 in 10.0 mi Calm Calm - N/A   Clear
7:15 PM 62.6 °F - 57.2 °F 82% 30.24 in 10.0 mi WNW 3.5 mph - N/A   Clear
7:35 PM 62.6 °F - 57.2 °F 82% 30.24 in 10.0 mi Calm Calm - N/A   Clear
7:55 PM 62.6 °F - 57.2 °F 82% 30.25 in 10.0 mi Calm Calm - N/A   Clear
8:15 PM 59.0 °F - 57.2 °F 94% 30.26 in 10.0 mi Calm Calm - N/A   Clear
8:35 PM 57.2 °F - 57.2 °F 100% 30.26 in 10.0 mi Calm Calm - N/A   Clear
9:15 PM 57.2 °F - 55.4 °F 94% 30.26 in 10.0 mi Calm Calm - N/A   Clear
9:35 PM 55.4 °F - 55.4 °F 100% 30.27 in 10.0 mi Calm Calm - N/A   Clear
9:55 PM 55.4 °F - 53.6 °F 94% 30.27 in 10.0 mi Calm Calm - N/A   Clear
10:15 PM 55.4 °F - 53.6 °F 94% 30.27 in 10.0 mi Calm Calm - N/A   Clear
10:35 PM 55.4 °F - 53.6 °F 94% 30.27 in 7.0 mi Calm Calm - N/A   Clear
10:55 PM 53.6 °F - 53.6 °F 100% 30.28 in 10.0 mi Calm Calm - N/A   Clear
11:15 PM 53.6 °F - 53.6 °F 100% 30.28 in 7.0 mi Calm Calm - N/A   Clear
11:35 PM 53.6 °F - 51.8 °F 94% 30.28 in 10.0 mi Calm Calm - N/A   Clear
11:55 PM 53.6 °F - 51.8 °F 94% 30.28 in 7.0 mi Calm Calm - N/A   Clear